[[{"header":{"parameterUnit":"m.s-1","parameterCategory":1,"la1":30.2991,"la2":30.254,"lo1":-89.0895,"lo2":-89.0444,"dy":0.0017,"dx":0.0017,"nx":28,"ny":28,"refTime":"2025-01-23T09:00:00:Z","depth":0,"parameterNumber":2,"parameterNumberName":"U-component_of_WINDS"},"data":[0,0,0,0,0,0,0,0,0,0,0,0,0,0,0,0,0,0,0,0,0,0,0,0,0,0,0,0,0,0,0,0,0,0,0,0,0,0,0,0,0,0,0,0,0,0,0,0,0,0,0,0,0,0,0,0,0,0,-3.7014,-3.7015,0,-3.711,-3.7111,-3.7112,-3.7037,-3.7034,-3.7031,-3.7028,-3.7123,-3.7128,-3.7133,0,0,0,0,0,0,0,0,0,0,0,0,0,-3.6762,-3.6767,-3.7014,-3.7015,-3.7016,-3.711,-3.7111,-3.7112,-3.7038,-3.7034,-3.703,-3.7027,-3.7121,-3.7127,-3.7134,0,0,0,0,0,0,0,0,0,0,0,0,0,-3.6866,-3.6769,-3.7014,-3.6991,-3.699,-3.7109,-3.7111,-3.7112,-3.7039,-3.7034,-3.7029,-3.7025,-3.7119,-3.7127,-3.7135,-3.7281,0,0,-3.716,-3.7164,0,0,0,0,0,0,0,0,-3.686,-3.6875,-3.6993,-3.6993,-3.6991,-3.7057,-3.7057,-3.7169,-3.704,-3.702,-3.7028,-3.7022,-3.7104,-3.7113,-3.7142,-3.7286,-3.729,-3.7161,-3.7166,-3.7169,-3.7172,0,0,0,0,0,0,0,-3.6853,-3.6871,-3.7052,-3.6995,-3.6994,-3.6974,-3.6983,-3.7078,-3.7088,-3.7021,-3.7016,-3.7029,-3.7103,-3.7134,-3.7143,-3.7291,-3.716,-3.7168,-3.7173,-3.7176,-3.7556,-3.7561,0,0,0,0,0,0,-3.6849,-3.6865,-3.7049,-3.7055,-3.6913,-3.6982,-3.6993,-3.7041,-3.7087,-3.7089,-3.7033,-3.7025,-3.7122,-3.7134,-3.7147,-3.7318,-3.7169,-3.7177,-3.7182,-3.7551,-3.7557,-3.7563,0,0,0,0,0,0,-3.6844,-3.6866,-3.7045,-3.6959,-3.698,-3.6992,-3.7046,-3.7045,-3.7076,-3.7095,-3.7096,-3.7063,-3.7119,-3.7135,-3.7248,-3.732,-3.7181,-3.7188,-3.7545,-3.7553,-3.756,-3.7664,0,0,0,0,0,0,-3.6837,-3.6865,-3.6922,-3.6961,-3.6985,-3.7146,-3.7051,-3.705,-3.7091,-3.7081,-3.7124,-3.7126,-3.7116,-3.7236,-3.7256,-3.7329,-3.7195,-3.7538,-3.7549,-3.7558,-3.7654,-3.7674,-3.7691,0,0,0,0,0,-3.6828,-3.6947,-3.6925,-3.6947,-3.7057,-3.7151,-3.7164,-3.7152,-3.7097,-3.7153,-3.7165,-3.7125,-3.731,-3.7248,-3.727,-3.7347,-3.7534,-3.7546,-3.7557,-3.7645,-3.767,-3.7691,0,0,0,0,0,0,-3.6916,-3.6952,-3.6928,-3.7063,-3.7104,-3.7138,-3.7208,-3.7179,-3.7236,-3.7225,-3.7206,-3.7216,-3.7334,-3.7352,-3.7282,-3.7489,-3.7413,-3.7429,-3.7472,-3.7496,-3.7514,-3.7506,-3.7201,0,0,0,0,0,-3.6951,-3.7026,-3.7053,-3.717,-3.7192,-3.7197,-3.7237,-3.7224,-3.7266,-3.7282,-3.7303,-3.7343,-3.741,-3.7455,-3.7518,-3.7657,-3.7663,-3.772,-3.7739,-3.7755,-3.7768,-3.7839,-3.7864,-3.7601,-3.7601,-3.7601,0,0,-3.7024,-3.7053,-3.7101,-3.7188,-3.7218,-3.7294,-3.7212,-3.7296,-3.7351,-3.7295,-3.7401,-3.7418,-3.7462,-3.7588,-3.7645,-3.7607,-3.7842,-3.7769,-3.7781,-3.7786,-3.7854,-3.7879,-3.7901,-3.7609,-3.7607,-3.7606,0,0,-3.7195,-3.7227,-3.7325,-3.7357,-3.7404,-3.7407,-3.7431,-3.7469,-3.7477,-3.7585,-3.7543,-3.7608,-3.7725,-3.7757,-3.7789,-3.797,-3.7934,-3.7992,-3.8088,-3.8158,-3.8179,-3.8197,-3.8258,-3.8281,-3.8006,-3.8006,-3.8006,0,-3.7279,-3.7393,-3.738,-3.7466,-3.7504,-3.7458,-3.7556,-3.7587,-3.7653,-3.7679,-3.7636,-3.778,-3.7807,-3.7937,-3.7981,-3.801,-3.8034,-3.7985,-3.8177,-3.8195,-3.8212,-3.827,-3.8294,-3.8012,-3.8012,-3.8011,-3.801,0,-3.7492,-3.7572,-3.7646,-3.771,-3.7756,-3.7849,-3.7847,-3.7896,-3.7878,-3.7885,-3.7993,-3.8024,-3.809,-3.8121,-3.8105,-3.8249,-3.8224,-3.818,-3.8102,-3.8244,-3.8298,-3.832,-3.8022,-3.8019,-3.8017,-3.8016,0,0,-3.772,-3.7775,-3.7802,-3.7829,-3.7877,-3.7937,-3.8027,-3.8092,-3.8132,-3.8179,-3.8251,-3.835,-3.8309,-3.8345,-3.8333,-3.8395,-3.8532,-3.8343,-3.8343,-3.8373,-3.8688,-3.8718,-3.8744,-3.851,-3.8514,-3.8517,-3.8683,0,-3.789,-3.8046,-3.8036,-3.8181,-3.8252,-3.8209,-3.8286,-3.8323,-3.8331,-3.8391,-3.84,-3.8469,-3.8412,-3.8433,-3.8492,-3.8503,-3.8594,-3.8491,-3.8573,-3.8576,-3.856,-3.8773,-3.8805,-3.896,-3.8704,-3.8708,-3.8711,0,-3.811,-3.8163,-3.8316,-3.8351,-3.838,-3.845,-3.8508,-3.8567,-3.8607,-3.8608,-3.8648,-3.8625,-3.8712,-3.8635,-3.8753,-3.8683,-3.8716,-3.8727,-3.8732,-3.8736,-3.8649,-3.8779,-3.901,-3.9031,-3.8744,-3.8742,-3.8739,0,-3.8255,-3.8366,-3.8471,-3.8496,-3.854,-3.859,-3.861,-3.8646,-3.8685,-3.8736,-3.876,-3.8821,-3.8853,-3.8899,-3.8892,-3.8837,-3.9011,-3.8934,-3.9012,-3.9012,-3.9048,-3.9045,-3.9283,-3.9076,-3.9076,-3.9075,-3.9075,0,-3.8444,-3.8538,-3.8536,-3.86,-3.8703,-3.8691,-3.8793,-3.8807,-3.8839,-3.8904,-3.8871,-3.8932,-3.892,-3.898,-3.8976,-3.9072,-3.9088,-3.9089,-3.9086,-3.909,-3.9089,-3.9109,-3.9096,-3.9081,-3.908,-3.9079,-3.9078,0,-3.8623,-3.8626,-3.8737,-3.877,-3.878,-3.8854,-3.8881,-3.8941,-3.8947,-3.9028,-3.9047,-3.9055,-3.9124,-3.9122,-3.9201,-3.9198,-3.9315,-3.9302,-3.9301,-3.9297,-3.9374,-3.9365,-3.9629,-3.9662,-3.9437,-3.944,-3.9441,0,-3.8742,-3.8813,-3.8853,-3.8894,-3.8918,-3.8985,-3.9025,-3.9015,-3.9057,-3.9107,-3.916,-3.9226,-3.9278,-3.939,-3.9402,-3.9461,-3.9446,-3.9535,-3.9455,-3.9456,-3.9443,-3.9437,-3.9442,-3.9549,-3.9552,-3.9554,-3.9556,0,-3.895,-3.8948,-3.9007,-3.9067,-3.9115,-3.9161,-3.9203,-3.9239,-3.9233,-3.9282,-3.9352,-3.9393,-3.9472,-3.9537,-3.9594,-3.9613,-3.9583,-3.9581,-3.9602,-3.9605,-3.96,-3.9599,-3.934,-3.9575,-3.9573,-3.9571,-3.957,-3.9569,-3.91,-3.916,-3.9197,-3.9263,-3.9294,-3.9334,-3.939,-3.9403,-3.9462,-3.9526,-3.9516,-3.9594,-3.963,-3.9703,-3.9728,-3.9787,-3.9755,-3.9786,-3.9793,-3.9799,-3.9806,-3.9594,-3.9798,-3.9797,-3.9797,-3.9796,-3.9796,0,-3.9303,-3.9325,-3.9386,-3.9446,-3.9497,-3.9466,-3.9511,-3.9555,-3.9624,-3.9661,-3.9713,-3.9792,-3.9855,-3.9872,-3.9931,-3.9975,-3.9963,-3.9991,-3.9985,-3.999,-3.9833,-3.9807,-4.0,-4.0,-4.0,-4.0,-4.0,-4.0,-3.9415,-3.9513,-3.9515,-3.9628,-3.9648,-3.9725,-3.9752,-3.9788,-3.9817,-3.9907,-3.9959,-3.997,-3.9998,-4.0059,-4.0114,-4.0117,-4.0139,-4.0172,-4.0169,-4.0022,-4.0001,-3.9981,-3.9957,-4.0178,-4.0178,-4.032,-4.0322,-4.0323]},{"header":{"parameterUnit":"m.s-1","parameterCategory":1,"la1":30.2991,"la2":30.254,"lo1":-89.0895,"lo2":-89.0444,"dy":0.0017,"dx":0.0017,"nx":28,"ny":28,"refTime":"2025-01-23T09:00:00:Z","depth":0,"parameterNumber":3,"parameterNumberName":"V-component_of_WINDS"},"data":[0,0,0,0,0,0,0,0,0,0,0,0,0,0,0,0,0,0,0,0,0,0,0,0,0,0,0,0,0,0,0,0,0,0,0,0,0,0,0,0,0,0,0,0,0,0,0,0,0,0,0,0,0,0,0,0,0,0,-0.6346,-0.6347,0,-0.6397,-0.6397,-0.6398,-0.6425,-0.6425,-0.6425,-0.6425,-0.6478,-0.6479,-0.648,0,0,0,0,0,0,0,0,0,0,0,0,0,-0.6272,-0.6273,-0.6346,-0.6347,-0.6347,-0.6397,-0.6397,-0.6398,-0.6425,-0.6425,-0.6425,-0.6425,-0.6477,-0.6479,-0.6481,0,0,0,0,0,0,0,0,0,0,0,0,0,-0.6311,-0.6273,-0.6346,-0.6367,-0.6369,-0.6396,-0.6397,-0.6398,-0.6425,-0.6425,-0.6425,-0.6425,-0.6477,-0.6479,-0.6481,-0.6491,0,0,-0.6487,-0.6488,0,0,0,0,0,0,0,0,-0.6309,-0.6314,-0.6363,-0.6365,-0.6368,-0.6405,-0.639,-0.6429,-0.6425,-0.6404,-0.6425,-0.6425,-0.6453,-0.6457,-0.6467,-0.6494,-0.6496,-0.6487,-0.6488,-0.6489,-0.649,0,0,0,0,0,0,0,-0.6306,-0.6312,-0.6366,-0.6364,-0.6367,-0.6373,-0.6379,-0.6398,-0.6428,-0.6406,-0.6408,-0.6413,-0.6455,-0.6465,-0.6468,-0.6497,-0.6487,-0.6489,-0.649,-0.6491,-0.6533,-0.6533,0,0,0,0,0,0,-0.63,-0.6309,-0.6364,-0.6368,-0.6338,-0.6374,-0.6381,-0.6393,-0.6427,-0.6433,-0.6413,-0.6415,-0.6461,-0.6466,-0.647,-0.6484,-0.6489,-0.6491,-0.6492,-0.6533,-0.6533,-0.6533,0,0,0,0,0,0,-0.6298,-0.6305,-0.6362,-0.6339,-0.6347,-0.6376,-0.6389,-0.6394,-0.6404,-0.6433,-0.6439,-0.6418,-0.6462,-0.6467,-0.6485,-0.6486,-0.6492,-0.6494,-0.6533,-0.6533,-0.6533,-0.6511,0,0,0,0,0,0,-0.6296,-0.6304,-0.6309,-0.6339,-0.6348,-0.6377,-0.6389,-0.6395,-0.6407,-0.6409,-0.6439,-0.6444,-0.6462,-0.6482,-0.6487,-0.6489,-0.6495,-0.6533,-0.6533,-0.6533,-0.6512,-0.651,-0.6509,0,0,0,0,0,-0.6293,-0.6301,-0.6309,-0.6315,-0.6355,-0.6377,-0.6382,-0.6403,-0.6407,-0.6412,-0.643,-0.6443,-0.6485,-0.6484,-0.649,-0.6492,-0.6533,-0.6533,-0.6533,-0.6513,-0.6511,-0.6509,0,0,0,0,0,0,-0.6271,-0.6306,-0.6315,-0.6333,-0.6351,-0.6382,-0.6389,-0.64,-0.6419,-0.642,-0.6444,-0.6451,-0.6466,-0.6481,-0.6479,-0.6503,-0.651,-0.6511,-0.6493,-0.6491,-0.649,-0.6486,-0.6497,0,0,0,0,0,-0.6268,-0.6284,-0.6313,-0.6326,-0.6335,-0.636,-0.6371,-0.6384,-0.6405,-0.6414,-0.6434,-0.6453,-0.6471,-0.6482,-0.65,-0.6514,-0.652,-0.6518,-0.6517,-0.6515,-0.6516,-0.6523,-0.6522,-0.6532,-0.6532,-0.6532,0,0,-0.6263,-0.6283,-0.6292,-0.6322,-0.6338,-0.6353,-0.6367,-0.6383,-0.6394,-0.6416,-0.6434,-0.6449,-0.6473,-0.6488,-0.6496,-0.6501,-0.6514,-0.6515,-0.6514,-0.6515,-0.6523,-0.6522,-0.6521,-0.6532,-0.6532,-0.6532,0,0,-0.626,-0.6278,-0.629,-0.6305,-0.6329,-0.6346,-0.6348,-0.6376,-0.6387,-0.6405,-0.6421,-0.6435,-0.6465,-0.648,-0.6492,-0.6492,-0.6504,-0.6497,-0.6489,-0.6496,-0.6495,-0.6495,-0.6494,-0.6493,-0.6498,-0.6498,-0.6498,0,-0.625,-0.6274,-0.6294,-0.6308,-0.6321,-0.634,-0.6352,-0.6366,-0.6395,-0.6403,-0.6407,-0.6444,-0.6461,-0.648,-0.648,-0.6489,-0.6492,-0.6494,-0.6494,-0.6493,-0.6493,-0.6492,-0.6492,-0.6497,-0.6497,-0.6497,-0.6497,0,-0.626,-0.6275,-0.6282,-0.6308,-0.6321,-0.6334,-0.6356,-0.6366,-0.6378,-0.6393,-0.641,-0.6432,-0.6453,-0.6459,-0.6471,-0.6479,-0.6481,-0.6489,-0.6497,-0.6491,-0.649,-0.649,-0.6495,-0.6496,-0.6496,-0.6496,0,0,-0.6246,-0.6282,-0.6284,-0.6295,-0.6322,-0.6335,-0.6348,-0.6368,-0.6376,-0.6394,-0.6405,-0.6429,-0.6436,-0.6449,-0.6463,-0.6469,-0.6466,-0.6477,-0.6478,-0.6473,-0.6475,-0.6468,-0.6467,-0.6474,-0.6474,-0.6474,-0.6472,0,-0.6247,-0.6271,-0.6289,-0.6306,-0.632,-0.6338,-0.6349,-0.6366,-0.638,-0.6394,-0.6409,-0.6425,-0.6434,-0.6442,-0.6448,-0.6465,-0.6467,-0.6466,-0.6484,-0.6485,-0.6478,-0.6468,-0.6461,-0.6458,-0.6473,-0.6473,-0.6473,0,-0.6252,-0.6269,-0.6287,-0.631,-0.6317,-0.6327,-0.6345,-0.6358,-0.6378,-0.6387,-0.6401,-0.6415,-0.6428,-0.6434,-0.6453,-0.6451,-0.646,-0.6469,-0.6469,-0.6472,-0.6478,-0.6469,-0.6458,-0.6457,-0.6473,-0.6473,-0.6473,0,-0.6239,-0.6266,-0.628,-0.6289,-0.6318,-0.6323,-0.6335,-0.6355,-0.6365,-0.6382,-0.6388,-0.6406,-0.6416,-0.6429,-0.6447,-0.645,-0.6463,-0.6471,-0.6471,-0.647,-0.6473,-0.6473,-0.6463,-0.6479,-0.6479,-0.6479,-0.6479,0,-0.6238,-0.6249,-0.6275,-0.6283,-0.6295,-0.6314,-0.6325,-0.6338,-0.6355,-0.6366,-0.6382,-0.6392,-0.6415,-0.6428,-0.6442,-0.6454,-0.6458,-0.6466,-0.647,-0.6465,-0.6463,-0.6471,-0.6471,-0.6479,-0.6479,-0.6479,-0.6479,0,-0.6227,-0.6245,-0.6261,-0.6285,-0.6291,-0.6298,-0.6319,-0.6328,-0.6341,-0.6355,-0.6359,-0.6381,-0.6397,-0.6415,-0.6437,-0.6446,-0.6457,-0.6463,-0.645,-0.6452,-0.6451,-0.645,-0.6445,-0.6444,-0.6461,-0.6461,-0.646,0,-0.6225,-0.6233,-0.6257,-0.6265,-0.6277,-0.629,-0.63,-0.6319,-0.6328,-0.635,-0.6355,-0.6371,-0.6386,-0.6409,-0.6427,-0.6443,-0.6449,-0.6445,-0.6451,-0.6445,-0.6448,-0.6447,-0.6447,-0.6444,-0.6444,-0.6443,-0.6443,0,-0.622,-0.6227,-0.6241,-0.6257,-0.6269,-0.6283,-0.6297,-0.6303,-0.6325,-0.6335,-0.635,-0.636,-0.6381,-0.6397,-0.6415,-0.6427,-0.6438,-0.6441,-0.6442,-0.6437,-0.6429,-0.6432,-0.6446,-0.6441,-0.6442,-0.6442,-0.6442,-0.6442,-0.6213,-0.622,-0.6237,-0.6252,-0.6264,-0.6277,-0.6285,-0.6299,-0.6312,-0.6331,-0.6341,-0.6355,-0.6372,-0.6397,-0.6408,-0.642,-0.6424,-0.6426,-0.6426,-0.6426,-0.6424,-0.6427,-0.6423,-0.6423,-0.6423,-0.6423,-0.6423,0,-0.6207,-0.6219,-0.6232,-0.6251,-0.6262,-0.627,-0.6286,-0.6295,-0.6307,-0.6322,-0.6335,-0.6351,-0.6366,-0.6384,-0.6399,-0.6405,-0.641,-0.6408,-0.6408,-0.641,-0.6419,-0.6417,-0.6403,-0.6403,-0.6403,-0.6403,-0.6403,-0.6403,-0.6206,-0.6218,-0.6228,-0.6245,-0.6257,-0.6271,-0.6279,-0.629,-0.6302,-0.6319,-0.6331,-0.6342,-0.6358,-0.6374,-0.6388,-0.6393,-0.6397,-0.6393,-0.64,-0.6408,-0.641,-0.6411,-0.6409,-0.6394,-0.6394,-0.639,-0.639,-0.639]}]]